カタログに戻る

ESSA 8

TOS-F

運用中気象SSO
NORAD 3615·PAYLOAD·🇺🇸 United States

打ち上げ Dec 15, 1968 から Vandenberg Space Force Base

Loading…

次のパス (今後24時間)

TLE

最新Source: Space-Track

元期: Sep 14, 2026, 07:59 UTC

1 03615U 68114A   26257.33309647 -.00000036  00000-0  52234-4 0  9992
2 03615 101.7086 205.9072 0032023 148.6942 211.6046 12.56251006647756

AllMySatでESSA 8をリアルタイム追跡

Download on the App Store